FPY13 EGCC-BIKF

Flight info

Callsign FPY13
Flight time 2h 41m
Altitude 38000
Route EKLAD Y53 WAL M146 LUSOD DCT GOMUP/M077F380 DCT 60N015W DCT BREKI DCT BASLU BASLU4N
Aircraft A20N/M-SDE2E3FGHIRWXY/LB1

Departure

Time 2026-05-07 17:17
Airport Manchester Airport (EGCC)

Arrival

Time 2026-05-07 19:59
Airport Keflavik International Airport (BIKF)
Time Latitude Longitude Altitude Speed Heading
2026-05-07 17:10 53.35979 -2.27511 249 ft 0 kts 96°
2026-05-07 17:11 53.35979 -2.27512 249 ft 0 kts 96°
2026-05-07 17:11 53.35981 -2.27531 249 ft 2 kts 96°
2026-05-07 17:11 53.35982 -2.27556 248 ft 2 kts 96°
2026-05-07 17:11 53.35984 -2.27582 247 ft 2 kts 96°
2026-05-07 17:12 53.35985 -2.27607 247 ft 2 kts 110°
2026-05-07 17:12 53.35995 -2.27626 247 ft 2 kts 152°
2026-05-07 17:12 53.36005 -2.27631 247 ft 0 kts 181°
2026-05-07 17:12 53.36013 -2.27630 247 ft 1 kts 186°
2026-05-07 17:14 53.36006 -2.27631 247 ft 2 kts 186°
2026-05-07 17:14 53.35951 -2.27640 246 ft 13 kts 186°
2026-05-07 17:15 53.35823 -2.27661 245 ft 20 kts 186°
2026-05-07 17:15 53.35688 -2.27612 246 ft 20 kts 150°
2026-05-07 17:15 53.35581 -2.27474 249 ft 18 kts 141°
2026-05-07 17:15 53.35484 -2.27344 252 ft 17 kts 142°
2026-05-07 17:16 53.35386 -2.27219 253 ft 17 kts 150°
2026-05-07 17:16 53.35263 -2.27216 252 ft 19 kts 191°
2026-05-07 17:16 53.35124 -2.27263 250 ft 21 kts 192°
2026-05-07 17:16 53.34984 -2.27364 246 ft 23 kts 229°
2026-05-07 17:17 53.34832 -2.27677 238 ft 62 kts 231°
2026-05-07 17:17 53.34416 -2.28540 219 ft 127 kts 230°
2026-05-07 17:17 53.33756 -2.29908 353 ft 163 kts 231°
2026-05-07 17:17 53.33067 -2.31341 1037 ft 157 kts 231°
2026-05-07 17:18 53.32365 -2.32796 1613 ft 163 kts 231°
2026-05-07 17:18 53.31785 -2.34396 2178 ft 169 kts 255°
2026-05-07 17:18 53.31875 -2.36378 2645 ft 182 kts 288°
2026-05-07 17:18 53.32332 -2.38438 3142 ft 195 kts 289°
2026-05-07 17:19 53.32801 -2.40626 3634 ft 206 kts 284°
2026-05-07 17:19 53.32886 -2.43085 4061 ft 218 kts 255°
2026-05-07 17:19 53.32417 -2.45596 4421 ft 237 kts 249°
2026-05-07 17:19 53.31871 -2.48266 4869 ft 253 kts 250°
2026-05-07 17:20 53.31268 -2.51137 5358 ft 267 kts 249°
2026-05-07 17:20 53.30654 -2.54148 6107 ft 271 kts 250°
2026-05-07 17:20 53.30063 -2.57212 6920 ft 274 kts 251°
2026-05-07 17:20 53.29499 -2.60220 7690 ft 276 kts 251°
2026-05-07 17:21 53.28936 -2.63265 8463 ft 280 kts 252°
2026-05-07 17:21 53.28358 -2.66393 9265 ft 282 kts 251°
2026-05-07 17:21 53.27776 -2.69542 10051 ft 285 kts 251°
2026-05-07 17:21 53.27181 -2.72757 10683 ft 293 kts 251°
2026-05-07 17:22 53.26564 -2.76074 11254 ft 303 kts 251°
2026-05-07 17:22 53.25975 -2.79433 11990 ft 306 kts 257°
2026-05-07 17:22 53.26011 -2.82971 12727 ft 312 kts 283°
2026-05-07 17:22 53.26976 -2.86234 13465 ft 318 kts 304°
2026-05-07 17:23 53.28330 -2.89182 14167 ft 322 kts 305°
2026-05-07 17:23 53.29693 -2.92139 14826 ft 327 kts 305°
2026-05-07 17:23 53.31070 -2.95164 15491 ft 330 kts 304°
2026-05-07 17:23 53.32460 -2.98255 16147 ft 334 kts 304°
2026-05-07 17:24 53.33874 -3.01421 16800 ft 337 kts 304°
2026-05-07 17:24 53.35274 -3.04567 17445 ft 340 kts 304°
2026-05-07 17:24 53.36694 -3.07760 18080 ft 343 kts 304°
2026-05-07 17:24 53.38109 -3.10937 18692 ft 346 kts 305°
2026-05-07 17:25 53.39632 -3.14043 19292 ft 350 kts 309°
2026-05-07 17:25 53.41316 -3.17040 19892 ft 353 kts 312°
2026-05-07 17:25 53.43044 -3.19983 20471 ft 356 kts 312°
2026-05-07 17:25 53.44778 -3.22921 21023 ft 359 kts 312°
2026-05-07 17:26 53.46533 -3.25901 21562 ft 363 kts 312°
2026-05-07 17:26 53.48296 -3.28905 22086 ft 365 kts 312°
2026-05-07 17:26 53.50074 -3.31942 22588 ft 368 kts 312°
2026-05-07 17:26 53.51868 -3.35019 23077 ft 372 kts 312°
2026-05-07 17:27 53.53672 -3.38115 23562 ft 375 kts 312°
2026-05-07 17:27 53.55494 -3.41245 24039 ft 378 kts 312°
2026-05-07 17:27 53.57281 -3.44473 24503 ft 380 kts 308°
2026-05-07 17:27 53.58942 -3.47904 24952 ft 382 kts 304°
2026-05-07 17:28 53.60515 -3.51550 25395 ft 384 kts 303°
2026-05-07 17:28 53.62053 -3.55222 25817 ft 387 kts 303°
2026-05-07 17:28 53.63597 -3.58920 26244 ft 390 kts 303°
2026-05-07 17:28 53.65151 -3.62634 26656 ft 393 kts 303°
2026-05-07 17:29 53.66730 -3.66409 27075 ft 396 kts 302°
2026-05-07 17:29 53.68333 -3.70243 27490 ft 399 kts 302°
2026-05-07 17:29 53.69932 -3.74069 27888 ft 402 kts 302°
2026-05-07 17:29 53.71549 -3.77944 28277 ft 406 kts 302°
2026-05-07 17:30 53.73167 -3.81828 28657 ft 409 kts 302°
2026-05-07 17:30 53.74814 -3.85790 29037 ft 412 kts 302°
2026-05-07 17:30 53.76439 -3.89708 29421 ft 414 kts 303°
2026-05-07 17:30 53.78097 -3.93705 29814 ft 415 kts 303°
2026-05-07 17:31 53.79740 -3.97672 30196 ft 418 kts 303°
2026-05-07 17:31 53.81404 -4.01698 30569 ft 421 kts 303°
2026-05-07 17:31 53.83099 -4.05811 30933 ft 423 kts 303°
2026-05-07 17:31 53.84776 -4.09887 31283 ft 426 kts 303°
2026-05-07 17:32 53.86461 -4.13990 31625 ft 429 kts 303°
2026-05-07 17:32 53.88160 -4.18132 31961 ft 431 kts 303°
2026-05-07 17:32 53.89861 -4.22288 32263 ft 433 kts 303°
2026-05-07 17:32 53.91575 -4.26465 32540 ft 436 kts 304°
2026-05-07 17:33 53.93401 -4.30570 32813 ft 439 kts 307°
2026-05-07 17:33 53.95399 -4.34546 33085 ft 442 kts 311°
2026-05-07 17:33 53.97521 -4.38289 33323 ft 445 kts 314°
2026-05-07 17:33 53.99727 -4.41957 33550 ft 447 kts 315°
2026-05-07 17:34 54.01957 -4.45624 33788 ft 449 kts 315°
2026-05-07 17:34 54.04195 -4.49307 34028 ft 450 kts 315°
2026-05-07 17:34 54.06435 -4.53007 34253 ft 452 kts 315°
2026-05-07 17:34 54.08690 -4.56743 34472 ft 453 kts 315°
2026-05-07 17:35 54.10955 -4.60508 34731 ft 453 kts 315°
2026-05-07 17:35 54.13205 -4.64256 34990 ft 452 kts 314°
2026-05-07 17:35 54.15453 -4.68010 35239 ft 452 kts 314°
2026-05-07 17:35 54.17690 -4.71753 35480 ft 451 kts 314°
2026-05-07 17:36 54.19949 -4.75542 35714 ft 450 kts 314°
2026-05-07 17:36 54.22187 -4.79299 35928 ft 451 kts 313°
2026-05-07 17:36 54.24417 -4.83047 36101 ft 451 kts 313°
2026-05-07 17:36 54.26634 -4.86780 36260 ft 450 kts 313°
2026-05-07 17:37 54.28845 -4.90509 36424 ft 449 kts 313°
2026-05-07 17:37 54.31059 -4.94250 36586 ft 448 kts 313°
2026-05-07 17:37 54.33268 -4.97990 36737 ft 447 kts 313°
2026-05-07 17:37 54.35469 -5.01720 36879 ft 447 kts 313°
2026-05-07 17:38 54.37667 -5.05453 37011 ft 446 kts 313°
2026-05-07 17:38 54.39841 -5.09152 37138 ft 445 kts 313°
2026-05-07 17:38 54.42034 -5.12889 37263 ft 445 kts 313°
2026-05-07 17:38 54.44233 -5.16640 37384 ft 444 kts 313°
2026-05-07 17:39 54.46408 -5.20360 37497 ft 444 kts 313°
2026-05-07 17:39 54.48577 -5.24075 37606 ft 443 kts 313°
2026-05-07 17:39 54.50769 -5.27832 37713 ft 443 kts 313°
2026-05-07 17:39 54.52926 -5.31538 37814 ft 442 kts 313°
2026-05-07 17:40 54.57270 -5.39017 37933 ft 443 kts 313°
2026-05-07 17:40 54.61595 -5.46485 37937 ft 443 kts 313°
2026-05-07 17:41 54.65919 -5.53975 37936 ft 442 kts 312°
2026-05-07 17:41 54.70242 -5.61491 37939 ft 442 kts 312°
2026-05-07 17:42 54.74572 -5.69042 37939 ft 442 kts 311°
2026-05-07 17:42 54.78887 -5.76590 37939 ft 441 kts 311°
2026-05-07 17:43 54.83184 -5.84131 37939 ft 441 kts 311°
2026-05-07 17:43 54.87492 -5.91715 37940 ft 441 kts 311°
2026-05-07 17:44 54.91753 -5.99242 37940 ft 441 kts 311°
2026-05-07 17:44 54.96031 -6.06816 37925 ft 441 kts 311°
2026-05-07 17:45 55.00319 -6.14435 37915 ft 440 kts 311°
2026-05-07 17:45 55.04565 -6.22007 37922 ft 440 kts 311°
2026-05-07 17:46 55.08850 -6.29674 37925 ft 440 kts 311°
2026-05-07 17:46 55.13122 -6.37341 37921 ft 440 kts 311°
2026-05-07 17:47 55.17370 -6.44990 37918 ft 440 kts 310°
2026-05-07 17:47 55.21605 -6.52644 37913 ft 440 kts 310°
2026-05-07 17:48 55.25850 -6.60342 37911 ft 439 kts 310°
2026-05-07 17:48 55.30093 -6.68058 37909 ft 439 kts 310°
2026-05-07 17:49 55.34310 -6.75753 37909 ft 439 kts 309°
2026-05-07 17:49 55.38508 -6.83438 37906 ft 439 kts 309°
2026-05-07 17:50 55.42717 -6.91171 37905 ft 438 kts 309°
2026-05-07 17:50 55.46898 -6.98875 37902 ft 438 kts 309°
2026-05-07 17:51 55.51109 -7.06658 37902 ft 438 kts 309°
2026-05-07 17:51 55.55277 -7.14389 37899 ft 438 kts 309°
2026-05-07 17:52 55.59459 -7.22173 37898 ft 438 kts 309°
2026-05-07 17:52 55.63634 -7.29968 37896 ft 438 kts 309°
2026-05-07 17:53 55.67788 -7.37750 37895 ft 438 kts 309°
2026-05-07 17:53 55.71950 -7.45573 37893 ft 437 kts 309°
2026-05-07 17:54 55.76100 -7.53401 37890 ft 437 kts 309°
2026-05-07 17:54 55.80250 -7.61252 37889 ft 437 kts 309°
2026-05-07 17:55 55.84388 -7.69106 37887 ft 437 kts 308°
2026-05-07 17:55 55.88531 -7.76999 37887 ft 437 kts 308°
2026-05-07 17:56 55.92649 -7.84872 37886 ft 436 kts 308°
2026-05-07 17:56 55.96746 -7.92730 37888 ft 436 kts 308°
2026-05-07 17:57 56.00882 -8.00687 37887 ft 436 kts 308°
2026-05-07 17:57 56.04988 -8.08614 37888 ft 436 kts 308°
2026-05-07 17:58 56.09088 -8.16558 37887 ft 436 kts 308°
2026-05-07 17:58 56.13166 -8.24483 37884 ft 436 kts 308°
2026-05-07 17:59 56.17253 -8.32459 37881 ft 436 kts 308°
2026-05-07 17:59 56.21340 -8.40460 37875 ft 436 kts 307°
2026-05-07 18:00 56.25429 -8.48491 37871 ft 436 kts 308°
2026-05-07 18:00 56.29508 -8.56526 37863 ft 436 kts 307°
2026-05-07 18:01 56.33556 -8.64525 37856 ft 435 kts 308°
2026-05-07 18:01 56.37603 -8.72573 37847 ft 435 kts 307°
2026-05-07 18:02 56.43677 -8.84648 37836 ft 435 kts 306°
2026-05-07 18:03 56.47716 -8.92768 37832 ft 434 kts 307°
2026-05-07 18:03 56.51731 -9.00821 37834 ft 434 kts 307°
2026-05-07 18:04 56.55758 -9.08940 37829 ft 434 kts 307°
2026-05-07 18:04 56.59778 -9.17040 37825 ft 433 kts 306°
2026-05-07 18:05 56.63769 -9.25162 37825 ft 434 kts 307°
2026-05-07 18:05 56.67782 -9.33316 37802 ft 434 kts 307°
2026-05-07 18:06 56.71757 -9.41418 37780 ft 434 kts 306°
2026-05-07 18:06 56.75764 -9.49669 37792 ft 434 kts 307°
2026-05-07 18:07 56.79743 -9.57855 37815 ft 434 kts 307°
2026-05-07 18:07 56.83726 -9.66045 37820 ft 434 kts 306°
2026-05-07 18:08 56.87705 -9.74313 37820 ft 433 kts 307°
2026-05-07 18:08 56.91668 -9.82529 37816 ft 433 kts 306°
2026-05-07 18:09 56.95616 -9.90768 37819 ft 433 kts 306°
2026-05-07 18:09 56.99675 -9.98881 37819 ft 436 kts 310°
2026-05-07 18:10 57.04217 -10.06273 37818 ft 439 kts 315°
2026-05-07 18:10 57.08941 -10.13325 37804 ft 439 kts 317°
2026-05-07 18:11 57.13679 -10.20362 37788 ft 438 kts 316°
2026-05-07 18:11 57.18389 -10.27423 37797 ft 438 kts 316°
2026-05-07 18:12 57.23096 -10.34507 37810 ft 438 kts 316°
2026-05-07 18:12 57.27775 -10.41566 37815 ft 438 kts 316°
2026-05-07 18:13 57.32455 -10.48670 37815 ft 438 kts 316°
2026-05-07 18:13 57.37146 -10.55825 37817 ft 438 kts 316°
2026-05-07 18:14 57.41817 -10.62947 37819 ft 438 kts 316°
2026-05-07 18:14 57.46513 -10.70144 37819 ft 438 kts 315°
2026-05-07 18:15 57.51176 -10.77309 37821 ft 438 kts 315°
2026-05-07 18:15 57.55871 -10.84529 37818 ft 438 kts 315°
2026-05-07 18:16 57.60522 -10.91732 37808 ft 438 kts 315°
2026-05-07 18:16 57.65189 -10.98989 37791 ft 438 kts 315°
2026-05-07 18:17 57.69845 -11.06239 37784 ft 438 kts 315°
2026-05-07 18:17 57.74500 -11.13520 37781 ft 438 kts 315°
2026-05-07 18:18 57.79146 -11.20815 37782 ft 438 kts 316°
2026-05-07 18:18 57.83804 -11.28149 37782 ft 438 kts 316°
2026-05-07 18:19 57.88450 -11.35490 37782 ft 439 kts 316°
2026-05-07 18:19 57.93107 -11.42875 37782 ft 439 kts 316°
2026-05-07 18:20 57.97755 -11.50268 37783 ft 439 kts 316°
2026-05-07 18:20 58.02372 -11.57639 37779 ft 439 kts 316°
2026-05-07 18:21 58.07033 -11.65108 37775 ft 439 kts 315°
2026-05-07 18:21 58.11683 -11.72591 37785 ft 439 kts 315°
2026-05-07 18:22 58.16298 -11.80039 37797 ft 439 kts 315°
2026-05-07 18:22 58.20938 -11.87550 37802 ft 439 kts 315°
2026-05-07 18:23 58.25541 -11.95031 37804 ft 439 kts 315°
2026-05-07 18:23 58.30168 -12.02577 37806 ft 439 kts 315°
2026-05-07 18:24 58.34801 -12.10161 37807 ft 439 kts 316°
2026-05-07 18:24 58.39419 -12.17726 37804 ft 439 kts 316°
2026-05-07 18:25 58.44013 -12.25286 37798 ft 439 kts 316°
2026-05-07 18:25 58.48595 -12.32864 37794 ft 439 kts 316°
2026-05-07 18:26 58.53207 -12.40518 37793 ft 439 kts 316°
2026-05-07 18:26 58.57783 -12.48144 37792 ft 439 kts 316°
2026-05-07 18:27 58.62376 -12.55827 37792 ft 439 kts 316°
2026-05-07 18:27 58.66944 -12.63500 37793 ft 439 kts 316°
2026-05-07 18:28 58.71522 -12.71216 37794 ft 439 kts 315°
2026-05-07 18:28 58.76063 -12.78894 37796 ft 439 kts 315°
2026-05-07 18:29 58.80620 -12.86632 37798 ft 438 kts 315°
2026-05-07 18:29 58.85177 -12.94397 37800 ft 438 kts 315°
2026-05-07 18:30 58.89728 -13.02180 37803 ft 438 kts 315°
2026-05-07 18:30 58.94271 -13.09976 37805 ft 438 kts 316°
2026-05-07 18:31 58.98806 -13.17788 37808 ft 438 kts 316°
2026-05-07 18:31 59.03337 -13.25618 37810 ft 438 kts 316°
2026-05-07 18:32 59.07873 -13.33487 37813 ft 438 kts 316°
2026-05-07 18:32 59.12380 -13.41334 37815 ft 438 kts 316°
2026-05-07 18:33 59.16908 -13.49250 37817 ft 438 kts 316°
2026-05-07 18:33 59.21427 -13.57179 37819 ft 439 kts 316°
2026-05-07 18:34 59.25918 -13.65085 37822 ft 439 kts 315°
2026-05-07 18:34 59.30450 -13.73095 37823 ft 439 kts 315°
2026-05-07 18:35 59.34963 -13.81101 37823 ft 439 kts 315°
2026-05-07 18:35 59.39433 -13.89058 37821 ft 439 kts 315°
2026-05-07 18:36 59.43952 -13.97139 37822 ft 439 kts 315°
2026-05-07 18:36 59.48431 -14.05185 37821 ft 439 kts 315°
2026-05-07 18:37 59.52900 -14.13236 37821 ft 439 kts 315°
2026-05-07 18:37 59.57375 -14.21328 37826 ft 438 kts 315°
2026-05-07 18:38 59.61855 -14.29461 37832 ft 439 kts 315°
2026-05-07 18:38 59.66308 -14.37571 37835 ft 439 kts 315°
2026-05-07 18:39 59.70786 -14.45758 37837 ft 439 kts 315°
2026-05-07 18:39 59.75240 -14.53932 37844 ft 438 kts 315°
2026-05-07 18:40 59.79691 -14.62134 37897 ft 438 kts 315°
2026-05-07 18:40 59.84124 -14.70332 37964 ft 438 kts 315°
2026-05-07 18:41 59.88553 -14.78556 37991 ft 438 kts 315°
2026-05-07 18:41 59.92992 -14.86832 38001 ft 438 kts 315°
2026-05-07 18:42 59.97390 -14.95059 38006 ft 438 kts 315°
2026-05-07 18:42 60.01939 -15.03100 38010 ft 438 kts 319°
2026-05-07 18:43 60.06681 -15.10750 38012 ft 438 kts 320°
2026-05-07 18:43 60.11391 -15.18334 38014 ft 438 kts 320°
2026-05-07 18:44 60.16127 -15.26009 38015 ft 438 kts 320°
2026-05-07 18:44 60.20814 -15.33640 38021 ft 438 kts 320°
2026-05-07 18:45 60.25534 -15.41356 38023 ft 438 kts 320°
2026-05-07 18:45 60.30223 -15.49051 38024 ft 437 kts 320°
2026-05-07 18:46 60.34922 -15.56795 38027 ft 437 kts 320°
2026-05-07 18:46 60.39594 -15.64523 38030 ft 437 kts 320°
2026-05-07 18:47 60.44256 -15.72265 38034 ft 437 kts 319°
2026-05-07 18:47 60.48939 -15.80073 38037 ft 436 kts 319°
2026-05-07 18:48 60.53608 -15.87887 38041 ft 436 kts 319°
2026-05-07 18:48 60.58252 -15.95689 38044 ft 436 kts 319°
2026-05-07 18:49 60.62915 -16.03554 38047 ft 436 kts 319°
2026-05-07 18:49 60.67555 -16.11410 38048 ft 437 kts 319°
2026-05-07 18:50 60.72184 -16.19279 38048 ft 437 kts 319°
2026-05-07 18:50 60.76848 -16.27238 38052 ft 437 kts 319°
2026-05-07 18:51 60.81473 -16.35161 38056 ft 436 kts 319°
2026-05-07 18:51 60.86087 -16.43096 38059 ft 436 kts 319°
2026-05-07 18:52 60.90731 -16.51113 38061 ft 436 kts 319°
2026-05-07 18:52 60.95349 -16.59115 38064 ft 437 kts 319°
2026-05-07 18:53 60.99972 -16.67167 38066 ft 437 kts 319°
2026-05-07 18:53 61.04568 -16.75202 38068 ft 436 kts 319°
2026-05-07 18:54 61.09164 -16.83263 38069 ft 436 kts 319°
2026-05-07 18:54 61.13770 -16.91374 38071 ft 436 kts 319°
2026-05-07 18:55 61.18371 -16.99509 38073 ft 436 kts 319°
2026-05-07 18:55 61.22948 -17.07633 38075 ft 436 kts 319°
2026-05-07 18:56 61.27545 -17.15825 38076 ft 436 kts 319°
2026-05-07 18:56 61.32132 -17.24032 38078 ft 436 kts 319°
2026-05-07 18:57 61.36702 -17.32240 38079 ft 436 kts 319°
2026-05-07 18:57 61.41264 -17.40468 38081 ft 436 kts 319°
2026-05-07 18:58 61.45821 -17.48721 38087 ft 436 kts 319°
2026-05-07 18:58 61.50377 -17.57004 38095 ft 435 kts 319°
2026-05-07 18:59 61.54908 -17.65276 38098 ft 436 kts 318°
2026-05-07 18:59 61.59453 -17.73606 38100 ft 436 kts 318°
2026-05-07 19:00 61.63991 -17.81956 38101 ft 436 kts 318°
2026-05-07 19:00 61.68531 -17.90345 38102 ft 436 kts 318°
2026-05-07 19:01 61.73056 -17.98738 38104 ft 436 kts 318°
2026-05-07 19:01 61.77591 -18.07187 38105 ft 436 kts 318°
2026-05-07 19:02 61.82082 -18.15586 38105 ft 436 kts 319°
2026-05-07 19:02 61.86611 -18.24092 38107 ft 436 kts 319°
2026-05-07 19:03 61.91096 -18.32550 38114 ft 436 kts 319°
2026-05-07 19:03 61.95605 -18.41088 38122 ft 436 kts 319°
2026-05-07 19:04 62.00110 -18.49653 38126 ft 436 kts 319°
2026-05-07 19:04 62.04594 -18.58215 38127 ft 435 kts 319°
2026-05-07 19:05 62.09079 -18.66817 38128 ft 435 kts 317°
2026-05-07 19:05 62.13550 -18.75427 38128 ft 435 kts 318°
2026-05-07 19:06 62.18020 -18.84066 38128 ft 435 kts 318°
2026-05-07 19:06 62.24645 -18.96943 38129 ft 433 kts 318°
2026-05-07 19:07 62.28941 -19.05329 38129 ft 433 kts 318°
2026-05-07 19:29 62.32181 -19.11680 38130 ft 433 kts 318°
2026-05-07 19:29 62.34400 -19.16042 37974 ft 433 kts 318°
2026-05-07 19:29 62.36597 -19.20371 37773 ft 431 kts 318°
2026-05-07 19:30 62.38815 -19.24748 37504 ft 428 kts 318°
2026-05-07 19:30 62.40996 -19.29062 37132 ft 426 kts 318°
2026-05-07 19:30 62.43185 -19.33400 36655 ft 427 kts 318°
2026-05-07 19:30 62.45389 -19.37777 36111 ft 429 kts 318°
2026-05-07 19:31 62.47592 -19.42162 35535 ft 432 kts 318°
2026-05-07 19:31 62.49791 -19.46552 34968 ft 434 kts 318°
2026-05-07 19:31 62.51979 -19.50938 34399 ft 436 kts 317°
2026-05-07 19:31 62.54120 -19.55592 33811 ft 438 kts 314°
2026-05-07 19:32 62.56150 -19.60542 33216 ft 439 kts 312°
2026-05-07 19:32 62.58107 -19.65538 32739 ft 437 kts 310°
2026-05-07 19:32 62.60044 -19.70538 32305 ft 435 kts 310°
2026-05-07 19:32 62.61985 -19.75560 31879 ft 431 kts 310°
2026-05-07 19:33 62.63896 -19.80508 31398 ft 430 kts 311°
2026-05-07 19:33 62.65807 -19.85462 30968 ft 428 kts 311°
2026-05-07 19:33 62.67711 -19.90405 30565 ft 424 kts 311°
2026-05-07 19:33 62.69592 -19.95296 30207 ft 420 kts 311°
2026-05-07 19:34 62.71468 -20.00182 29851 ft 415 kts 311°
2026-05-07 19:34 62.73270 -20.04884 29523 ft 408 kts 311°
2026-05-07 19:34 62.75092 -20.09648 29128 ft 403 kts 311°
2026-05-07 19:34 62.76879 -20.14331 28770 ft 397 kts 311°
2026-05-07 19:35 62.78618 -20.18894 28389 ft 391 kts 311°
2026-05-07 19:35 62.80340 -20.23421 27940 ft 387 kts 311°
2026-05-07 19:35 62.82032 -20.27882 27476 ft 383 kts 311°
2026-05-07 19:35 62.83719 -20.32335 27004 ft 380 kts 311°
2026-05-07 19:36 62.85399 -20.36779 26438 ft 380 kts 311°
2026-05-07 19:36 62.87054 -20.41163 25932 ft 377 kts 311°
2026-05-07 19:36 62.88706 -20.45548 25460 ft 373 kts 311°
2026-05-07 19:36 62.90366 -20.49965 24998 ft 369 kts 311°
2026-05-07 19:37 62.91980 -20.54266 24554 ft 365 kts 311°
2026-05-07 19:37 62.93592 -20.58572 24113 ft 360 kts 312°
2026-05-07 19:37 62.95159 -20.62764 23687 ft 356 kts 312°
2026-05-07 19:37 62.96709 -20.66919 23266 ft 353 kts 311°
2026-05-07 19:38 62.98259 -20.71083 22838 ft 349 kts 311°
2026-05-07 19:38 62.99795 -20.75215 22416 ft 345 kts 311°
2026-05-07 19:38 63.01306 -20.79287 21998 ft 342 kts 311°
2026-05-07 19:38 63.02788 -20.83289 21587 ft 339 kts 311°
2026-05-07 19:39 63.04265 -20.87284 21178 ft 336 kts 311°
2026-05-07 19:39 63.05733 -20.91263 20770 ft 334 kts 311°
2026-05-07 19:39 63.07174 -20.95176 20369 ft 331 kts 311°
2026-05-07 19:39 63.08607 -20.99073 19967 ft 329 kts 311°
2026-05-07 19:40 63.10044 -21.02987 19564 ft 326 kts 311°
2026-05-07 19:40 63.11456 -21.06842 19169 ft 324 kts 311°
2026-05-07 19:40 63.12862 -21.10685 18778 ft 322 kts 311°
2026-05-07 19:40 63.14271 -21.14546 18388 ft 319 kts 311°
2026-05-07 19:41 63.15660 -21.18362 18015 ft 317 kts 311°
2026-05-07 19:41 63.16904 -21.21780 17626 ft 315 kts 311°
2026-05-07 19:41 63.18305 -21.25466 17251 ft 311 kts 315°
2026-05-07 19:41 63.19804 -21.28839 16879 ft 308 kts 319°
2026-05-07 19:42 63.21328 -21.31811 16535 ft 304 kts 321°
2026-05-07 19:42 63.22944 -21.34835 16165 ft 302 kts 322°
2026-05-07 19:42 63.24540 -21.37809 15794 ft 300 kts 322°
2026-05-07 19:42 63.26139 -21.40792 15417 ft 298 kts 322°
2026-05-07 19:43 63.27529 -21.43394 15087 ft 294 kts 322°
2026-05-07 19:43 63.29089 -21.46315 14719 ft 291 kts 322°
2026-05-07 19:43 63.30629 -21.49198 14355 ft 289 kts 322°
2026-05-07 19:43 63.32146 -21.52055 13997 ft 286 kts 322°
2026-05-07 19:44 63.33644 -21.54885 13642 ft 283 kts 322°
2026-05-07 19:44 63.35127 -21.57691 13290 ft 281 kts 322°
2026-05-07 19:44 63.36622 -21.60509 12933 ft 279 kts 322°
2026-05-07 19:44 63.38086 -21.63284 12582 ft 276 kts 322°
2026-05-07 19:45 63.39541 -21.66049 12234 ft 274 kts 322°
2026-05-07 19:45 63.40995 -21.68809 11886 ft 273 kts 321°
2026-05-07 19:45 63.42424 -21.71534 11542 ft 271 kts 322°
2026-05-07 19:45 63.43853 -21.74250 11200 ft 270 kts 322°
2026-05-07 19:46 63.45280 -21.76962 10855 ft 269 kts 322°
2026-05-07 19:46 63.46711 -21.79693 10503 ft 268 kts 322°
2026-05-07 19:46 63.48120 -21.82389 10241 ft 264 kts 321°
2026-05-07 19:46 63.49479 -21.84997 10043 ft 260 kts 321°
2026-05-07 19:47 63.50844 -21.87616 9697 ft 259 kts 321°
2026-05-07 19:47 63.52211 -21.90241 9361 ft 258 kts 321°
2026-05-07 19:47 63.53556 -21.92816 9031 ft 257 kts 321°
2026-05-07 19:47 63.54900 -21.95421 8709 ft 255 kts 320°
2026-05-07 19:48 63.56248 -21.98025 8391 ft 254 kts 321°
2026-05-07 19:48 63.57565 -22.00608 8078 ft 252 kts 322°
2026-05-07 19:48 63.58878 -22.03145 7765 ft 250 kts 322°
2026-05-07 19:48 63.60200 -22.05695 7453 ft 249 kts 322°
2026-05-07 19:49 63.61497 -22.08179 7152 ft 247 kts 321°
2026-05-07 19:49 63.62796 -22.10707 6847 ft 246 kts 322°
2026-05-07 19:49 63.64071 -22.13190 6552 ft 245 kts 322°
2026-05-07 19:49 63.65364 -22.15690 6253 ft 244 kts 322°
2026-05-07 19:50 63.66640 -22.18180 5952 ft 243 kts 321°
2026-05-07 19:50 63.67892 -22.20643 5663 ft 241 kts 322°
2026-05-07 19:50 63.69163 -22.23125 5364 ft 241 kts 322°
2026-05-07 19:50 63.70415 -22.25575 5067 ft 240 kts 322°
2026-05-07 19:51 63.71668 -22.28011 4773 ft 239 kts 322°
2026-05-07 19:51 63.72920 -22.30455 4478 ft 237 kts 322°
2026-05-07 19:51 63.74157 -22.32884 4189 ft 235 kts 322°
2026-05-07 19:51 63.75366 -22.35270 4037 ft 231 kts 322°
2026-05-07 19:52 63.76516 -22.37799 3972 ft 235 kts 310°
2026-05-07 19:52 63.77309 -22.41045 3757 ft 237 kts 295°
2026-05-07 19:52 63.77866 -22.44455 3449 ft 226 kts 293°
2026-05-07 19:52 63.78303 -22.47298 3258 ft 212 kts 293°
2026-05-07 19:53 63.78774 -22.50323 3038 ft 198 kts 294°
2026-05-07 19:53 63.79223 -22.53159 2781 ft 187 kts 295°
2026-05-07 19:53 63.79652 -22.55830 2597 ft 177 kts 295°
2026-05-07 19:53 63.80088 -22.58347 2554 ft 173 kts 305°
2026-05-07 19:54 63.80961 -22.60059 2511 ft 166 kts 343°
2026-05-07 19:54 63.82092 -22.60536 2519 ft 164 kts 359°
2026-05-07 19:54 63.83231 -22.60600 2508 ft 163 kts
2026-05-07 19:54 63.84352 -22.60579 2489 ft 164 kts
2026-05-07 19:55 63.85491 -22.60557 2284 ft 163 kts
2026-05-07 19:55 63.86608 -22.60551 2048 ft 157 kts
2026-05-07 19:55 63.87651 -22.60551 1810 ft 142 kts
2026-05-07 19:55 63.88572 -22.60551 1606 ft 127 kts
2026-05-07 19:56 63.89457 -22.60552 1439 ft 127 kts
2026-05-07 19:56 63.90335 -22.60552 1282 ft 126 kts
2026-05-07 19:56 63.91229 -22.60508 1090 ft 125 kts
2026-05-07 19:56 63.92115 -22.60459 896 ft 124 kts
2026-05-07 19:57 63.92979 -22.60467 761 ft 124 kts
2026-05-07 19:57 63.93859 -22.60541 581 ft 123 kts
2026-05-07 19:57 63.94723 -22.60519 395 ft 123 kts
2026-05-07 19:57 63.95614 -22.60519 216 ft 123 kts
2026-05-07 19:58 63.96484 -22.60550 81 ft 122 kts
2026-05-07 19:58 63.97313 -22.60560 10 ft 107 kts
2026-05-07 19:58 63.97911 -22.60546 9 ft 62 kts
2026-05-07 19:58 63.98293 -22.60543 9 ft 50 kts
2026-05-07 19:59 63.98620 -22.60534 9 ft 43 kts 360°
2026-05-07 19:59 63.98832 -22.60673 9 ft 24 kts 316°
2026-05-07 19:59 63.98940 -22.60911 9 ft 16 kts 324°
2026-05-07 19:59 63.99050 -22.60946 9 ft 16 kts
2026-05-07 20:00 63.99158 -22.60978 9 ft 15 kts 317°
2026-05-07 20:00 63.99176 -22.61214 9 ft 15 kts 272°
2026-05-07 20:00 63.99179 -22.61457 9 ft 15 kts 267°
2026-05-07 20:00 63.99176 -22.61696 9 ft 15 kts 269°
2026-05-07 20:01 63.99176 -22.61940 9 ft 15 kts 270°
2026-05-07 20:01 63.99176 -22.62190 9 ft 16 kts 270°
2026-05-07 20:01 63.99191 -22.62300 9 ft 3 kts
2026-05-07 20:01 63.99237 -22.62313 9 ft 8 kts 359°
2026-05-07 20:02 63.99283 -22.62314 9 ft 2 kts
2026-05-07 20:02 63.99285 -22.62314 9 ft 0 kts